Regional Weather Roundup
Issued by NWS Upton, NY

Current Version | Previous Version | Text Only | Print | Product List | Glossary On
Versions: 1 2 3 4 5 6 7 8 9 10 11 12 13 14 15 16 17 18 19 20 21 22 23 24 25 26 27 28 29 30 31 32 33 34 35 36 37 38 39 40 41 42 43 44 45 46 47 48 49
000 ASUS41 KOKX 140504 RWROKX REGIONAL WEATHER ROUNDUP NATIONAL WEATHER SERVICE NEW YORK NY 1200 AM EST SUN FEB 14 2016 NOTE: "FAIR" INDICATES FEW OR NO CLOUDS BELOW 12,000 FEET WITH NO SIGNIFICANT WEATHER AND/OR OBSTRUCTIONS TO VISIBILITY. NYZ071-072-176-178-NJZ106-104-140600- NEW YORK CITY METRO AREA CITY SKY/WX TMP DP RH WIND PRES REMARKS CENTRAL PARK CLEAR 6 -15 37 NW8G18 30.31R WCI -7 LAGUARDIA APRT PTCLDY 8 -8 48 NW24G35 30.31R WCI -13 KENNEDY INTL PTCLDY 8 -16 32 NW22G30 30.32R WCI -12 NEWARK/LIBERTY PTCLDY 7 -14 37 NW17G28 30.33S WCI -12 BRNX BOT. GARD N/A 7 -15 36 W23 30.28F WCI -14 TETERBORO CLEAR 6 -16 35 NW18G25 30.31S WCI -13 $$ NYZ177-179-078>081-140600- LONG ISLAND NEW YORK CITY SKY/WX TMP DP RH WIND PRES REMARKS FARMINGDALE CLEAR 8 -16 32 NW16G31 30.29F WCI -10 ISLIP PTCLDY 5 -15 39 NW22G30 30.27R WCI -16 SHIRLEY MOCLDY 4 -14 43 NW17G31 30.27F WCI -16 RIVERHEAD N/A 7 -24 23 N8 30.23F WCI -6 WESTHAMPTON CLOUDY 3 -13 47 NW17G24 30.27S WCI -17 EAST HAMPTON CLOUDY 4 -14 43 NW15G25 30.23F WCI -15 MONTAUK POINT N/A 5 -10 50 W21G31 30.24S WCI -16 $$ NYZ052-065-067-140600- HUDSON VALLEY CITY SKY/WX TMP DP RH WIND PRES REMARKS WHITE PLAINS PTCLDY 3 -13 47 NW24G32 30.23R WCI -20 NEWBURGH PTCLDY 1 -9 60 NW14 30.25R WCI -17 MONTGOMERY MOCLDY 2 -10 57 N13G20 30.26R WCI -15 POUGHKEEPSIE PTCLDY 1 -13 51 N8 30.29R WCI -13 ALBANY CLEAR -9 -26 43 NW17 30.33R WCI -32 $$ NJZ001-105-106-008-010-013-015-019>022-104-140600- NEW JERSEY CITY SKY/WX TMP DP RH WIND PRES REMARKS NEWARK/LIBERTY PTCLDY 7 -14 37 NW17G28 30.33S WCI -12 TETERBORO CLEAR 6 -16 35 NW18G25 30.31S WCI -13 CALDWELL CLEAR 5 -17 35 NW18G28 30.31S WCI -15 MORRISTOWN CLEAR 5 -17 36 NW12G21 30.31S WCI -11 SOMERVILLE CLEAR 7 -10 46 NW14G23 30.33R WCI -10 SUSSEX CLEAR 2 -15 45 NW12G18 30.26S WCI -15 ANDOVER N/A 2 -14 47 NW14G23 30.28R WCI -16 TRENTON PTCLDY 10 -11 38 NW14G25 30.33R WCI -6 MILLVILLE CLEAR 13 -5 44 NW13 30.38R WCI -2 ATLANTIC CITY PTCLDY 12 -5 46 W12 30.35S WCI -2 WRIGHTSTOWN CLEAR 10 -13 34 MISG N/A TOMS RIVER CLEAR 10 -11 37 NW21G31 30.33S WCI -9 BELMAR CLEAR 9 -13 37 NW13 30.31R WCI -7 $$ PAZ047>061-062-071-140600- EASTERN PENNSYLVANIA CITY SKY/WX TMP DP RH WIND PRES REMARKS PHILADELPHIA PTCLDY 14 -10 33 W14G25 30.38R WCI -1 ALLENTOWN CLOUDY 9 -10 42 NW21G31 30.32R WCI -11 SCRANTON PTCLDY 1 -11 57 NW14 30.27R WCI -17 $$ CTZ002-004>006-009-010-012-RIZ004-006-007-MAZ004-011-015-140600- SOUTHERN NEW ENGLAND IN CT CITY SKY/WX TMP DP RH WIND PRES REMARKS BRADLEY INTL CLEAR -6 -24 41 N18G32 30.25R WCI -29 HARTFORD PTCLDY -2 -21 40 NW12G25 30.29R WCI -20 DANBURY LGT SNOW -1 -10 65 N12 30.26R WCI -18 WTRBRY/OXFORD PTCLDY -4 -24 38 N12 30.21R WCI -22 BRIDGEPORT MOCLDY 4 -14 43 NW17G26 30.27F WCI -16 MERIDEN PTCLDY -1 -19 42 NW13 30.26R WCI -19 NEW HAVEN MOCLDY 1 -13 51 N14 30.27R WCI -17 CHESTER FAIR 0 -15 50 NW14 30.22R WCI -19 GROTON CLEAR 0 -13 54 NW15G31 30.24R WCI -19 WILLIMANTIC PTCLDY -2 -22 38 NW14G31 30.22R WCI -21 IN RI CITY SKY/WX TMP DP RH WIND PRES REMARKS PROVIDENCE PTCLDY -1 -20 40 NW18G29 30.19R WCI -22 BLOCK ISLAND MOCLDY 3 -9 55 NW17G32 30.17S WCI -17 WESTERLY CLEAR -1 -18 44 NW10G26 30.22R WCI -17 IN MA CITY SKY/WX TMP DP RH WIND PRES REMARKS BOSTON PTCLDY -4 -22 41 NW22G32 30.16R WCI -28 WORCESTER CLEAR -10 -23 52 NW17G30 30.05R WCI -34 WESTFIELD PTCLDY -8 -26 41 NW17G30 30.24R WCI -31 PROVINCETOWN FLURRIES 3 -6 66 NW29G35 30.11R WCI -21 NANTUCKET CLOUDY 5 -10 50 W25G33 30.11S WCI -18 $$ ANZ330-335-338-340-345-350-353-355-140600- COASTAL MARINE OBSERVATIONS STATION/POSITION TIME SKY/WX TEMP WIND PRES VSBY WAVE AIR SEA DIR/SP/G HT/PER (UTC) (F) (DEG/KT/KT) (MB) (MI) (FT/S) NY HARB ENTRANCE 0350 13 42 310/ 33/ 43 1025.2 5/ 5 4S FIRE IS NOT AVBL 20S FIRE ISLAND 0350 13 41 320/ 33/ 43 1024.9 8/ 6 GREAT SOUTH BAY NOT AVBL 23SW MTP 0450 10 44 300/ 27/ 37 1023.0 9/ 8 HUDSON CANYON 0350 18 48 1023.8 15/ 9 KINGS POINT 0400 8 33 350/ 20/ 29 1025.7 EXECUTION ROCKS NOT AVBL CENTRAL LI SOUND 0400 7 300/ 23/ 35 N/A 5/ 6 EASTERN LI SOUND 0400 9 40 300/ 21/ 31 N/A ROBBINS REEF 0400 7 300/ 29/ 34 1025.3 $$ >>>>>>>>>>>>>>>>>>>>>>>>>>>> KEY <<<<<<<<<<<<<<<<<<<<<<<<<<< > < > SKY/WX - SKY CONDITION/PRESENT WEATHER < > TMP - TEMPERATURE IN FAHRENHEIT < > DP - DEWPOINT IN FAHRENHEIT < > RH - RELATIVE HUMIDITY IN PERCENT < > WIND - DIRECTION AND SPEED IN MPH < > PRES - MEAN SEA LEVEL PRESSURE IN INCHES OF HG < > WCI - WIND CHILL INDEX < > VSB - VISIBILITY IN MILES < > HX - HEAT INDEX < > TC - TEMPERATURE IN CELSIUS < > VRB - VARIABLE WIND DIRECTION < > < >>>>>>>>>>>>>>>>>>>>>>>>>>>> KEY <<<<<<<<<<<<<<<<<<<<<<<<<<<

USA.gov is the U.S. government's official web portal to all federal, state and local government web resources and services.